HEAT

Details ICAO HEAT (ATZ)
Name ASYUT INTL
Region Egypt
Timezone Africa/Cairo (UTC+2.0)
Plans Departing 17
Arriving 26
Stats Elevation 772 ft / 235 m (AMSL)
Location 27.046508° 31.011982°
Runways 1
Magnetic Variation 4.178° E
Sunrise 2018-05-22 03:06:18 UTC / 2018-05-22 05:06:18 Local
Sunset 2018-05-22 16:41:47 UTC / 2018-05-22 18:41:47 Local
Advertisement - Login to hide

Runways

ID Width Length Bearing (true) Bearing (mag) Surface Threshold Offset Overrun Length
13 148 ft / 45 m 9,910 ft / 3,021 m 129.98° 125.80° Asphalt 0 ft / 0 m 190 ft / 58 m
31 148 ft / 45 m 9,910 ft / 3,021 m 309.99° 305.81° Asphalt 0 ft / 0 m 190 ft / 58 m

Approach Navaids

Runway Type Ident Frequency Range Bearing (true) Bearing (mag) Slope Elevation
31 Localiser IASU 111.30 MHz 18 nm / 33 km 309.98° 305.81° - 744 ft / 227 m (AMSL)
31 Glidescope IASU 111.30 MHz 10 nm / 19 km 309.98° 305.81° 3.00° 815 ft / 248 m (AMSL)
31 DME IASU 111.30 MHz 18 nm / 33 km - - - 815 ft / 248 m (AMSL)

Map

Weather


0- 5 10 15 20 25 30 35+ Temperature / ° C

Clouds and Precipitation
Forecast for 2018-05-22 18:00 UTC. Updated an hour ago

Ground ~20,000 ft ~40,000 ft Winds

METAR

HEAT 221800Z 36006KT CAVOK 39/11 Q1013 NOSIG

TAF

Not found

Frequencies

Tower 118.10 MHz TWR
Warning: Do not use this data for real-world aviation or navigation. No guarantee of current accuracy is given.